Presure
215 219 219 218 217 206 206 203 198 210 195 204 198 194 194 195 196 196 196 195 199 200 208 205 208 206 220 211 233 222 227 242 244 257 257 276 280 290 308 422 415 404 391
215 233 204 213 214 204 200 202 197 196 200 196 191 193 193 195 195 193 191 190 199 203 204 204 207 220 223 224 237 231 234 246 253 256 273 278 283 295 416 413 403 393 385
205 216 216 212 205 211 199 197 197 196 193 192 193 192 191 192 195 196 195 199 202 203 203 207 217 219 225 225 235 228 244 248 262 263 276 276 289 330 412 403 393 383 392
210 221 210 205 196 193 197 198 195 193 191 193 191 190 192 190 198 195 200 202 202 195 217 219 219 225 227 224 236 233 248 261 263 276 273 282 325 414 403 395 385 369 391
223 219 211 195 195 197 198 195 193 192 191 189 194 190 195 202 197 203 199 203 211 220 220 217 230 224 225 239 233 242 251 269 270 272 277 310 418 403 393 390 375 369 388
221 223 202 198 196 197 191 192 190 185 195 191 193 196 201 195 203 202 203 212 219 221 221 227 220 228 231 238 237 252 270 269 276 272 290 418 407 391 385 383 363 373 384
226 216 194 195 193 193 193 190 193 193 191 196 193 200 198 201 202 205 213 222 221 220 227 218 227 232 236 237 254 272 270 275 274 287 421 407 400 386 381 367 360 373 381
225 196 194 192 193 193 192 197 194 198 197 194 201 196 203 201 211 218 225 218 221 226 220 227 232 236 242 256 274 273 273 285 285 335 409 398 389 381 370 361 364 372 379
199 195 194 193 197 199 195 197 195 191 203 193 199 202 206 215 219 222 221 219 225 224 229 234 239 246 266 274 272 274 281 282 337 405 401 394 380 371 361 360 368 373 370
195 196 198 196 195 196 197 195 199 194 201 204 206 216 221 221 225 224 226 229 231 237 239 243 253 267 276 268 276 291 294 399 400 397 385 380 369 366 358 366 372 358 317
192 193 195 197 200 197 201 200 204 209 215 218 226 220 224 225 226 231 238 246 248 243 251 261 270 272 264 276 276 358 408 398 394 388 381 373 366 365 364 370 367 324 320
202 203 201 201 205 206 214 218 217 226 229 222 224 224 228 234 238 240 241 247 255 259 268 276 268 267 271 288 415 420 408 397 388 385 376 369 367 367 368 365 350 309 327
209 212 214 219 219 214 230 232 220 220 218 224 224 225 219 237 250 251 249 251 266 270 275 268 266 275 324 440 433 418 392 391 381 379 369 367 365 367 366 358 362 343 309
218 219 221 230 231 216 214 224 228 222 224 224 224 237 239 241 244 251 269 267 275 263 260 260 277 348 457 432 409 385 374 384 366 371 371 367 360 366 358 362 358 363 356
228 198 217 215 222 222 213 205 223 228 231 237 240 239 249 272 269 268 267 271 267 262 265 293 396 442 422 395 395 380 373 372 366 379 374 363 355 359 361 345 357 360 359
205 205 210 231 228 206 213 223 219 238 240 237 253 269 270 269 281 275 262 265 270 277 309 439 441 426 421 410 383 491 458 404 399 380 369 371 358 361 347 360 355 353 357
224 224 234 234 223 217 217 232 245 243 240 251 252 258 254 256 257 260 268 262 283 307 452 446 449 431 404 384 449 443 432 414 393 380 382 375 362 346 360 356 352 344 354
214 227 226 230 234 228 235 245 240 248 247 251 252 254 257 263 267 266 271 288 327 450 438 433 428 418 385 370 395 430 433 436 416 398 391 377 358 346 356 350 349 341 349
233 221 232 236 228 242 241 245 248 254 254 257 255 260 264 256 261 298 317 324 443 428 418 411 400 388 375 389 380 365 360 418 415 401 389 369 347 357 343 353 345 344 350
229 232 237 240 243 242 246 250 252 254 260 252 252 254 255 268 302 317 322 438 417 416 404 392 380 365 382 401 374 355 355 376 396 389 375 358 362 350 349 346 370 348 345
239 239 237 242 249 245 243 248 251 261 257 258 251 257 281 311 315 349 433 414 403 405 392 400 419 400 384 396 373 358 353 361 372 377 361 368 357 355 345 337 383 346 335
242 250 256 250 239 243 244 253 264 259 252 250 264 287 315 317 352 409 413 393 403 397 386 392 481 455 428 395 372 358 346 354 338 368 377 360 359 344 333 403 364 343 330
256 249 242 229 242 244 260 265 254 251 262 270 288 308 318 358 394 413 388 320 398 388 390 381 454 432 415 393 376 361 348 339 343 353 358 371 346 333 365 390 351 336 330
243 244 246 241 253 262 260 253 259 267 279 292 311 326 347 419 410 385 371 393 398 408 396 374 425 404 390 384 381 373 357 345 375 344 365 360 341 331 378 394 345 334 329
254 245 248 253 259 261 258 264 276 289 295 327 334 367 418 402 382 376 391 406 453 425 395 385 399 366 341 420 414 410 412 405 386 359 340 359 344 335 334 318 318 337 335
244 253 256 266 264 265 273 283 293 313 322 346 416 414 398 385 381 382 387 462 440 416 392 427 388 361 370 400 401 455 419 402 391 368 340 376 354 340 332 319 321 323 361
Wind_Speed
40 40 42 44 44 51 57 55 58 59 61 62 65 68 73 76 81 82 86 87 89 92 95 100 100 102 105 105 108 108 109 117 116 122 122 124 122 127 128 80 73 70 65
42 40 47 48 48 53 55 58 57 60 62 64 67 72 77 79 84 87 87 89 93 95 97 99 104 106 107 108 113 112 115 120 123 122 126 125 127 128 82 73 70 67 63
45 46 49 51 50 51 54 57 59 61 65 68 71 73 77 83 85 87 89 94 96 102 104 107 109 109 111 112 116 114 122 124 125 125 125 125 130 126 73 68 65 64 60
48 49 51 50 52 55 57 58 60 63 67 70 74 76 81 84 88 89 93 95 99 101 108 110 111 112 114 114 118 119 126 127 127 125 124 129 127 72 68 65 62 64 58
50 51 51 52 55 57 59 61 64 67 71 74 77 80 84 87 90 95 94 99 103 106 108 110 112 113 115 120 120 126 128 127 126 124 126 129 70 68 65 62 60 60 56
54 54 52 55 56 58 61 64 68 72 75 77 81 85 88 91 95 98 99 104 107 109 110 112 112 117 120 122 122 128 127 126 126 124 128 71 66 66 62 59 59 58 52
56 56 55 57 59 62 65 70 74 76 78 83 84 88 91 95 98 102 107 107 108 110 112 111 117 120 122 123 129 125 124 125 124 127 70 67 63 63 60 59 58 56 51
56 55 57 60 63 66 70 74 77 80 84 86 91 91 96 99 104 106 106 106 109 111 111 117 120 122 127 129 125 122 124 127 126 121 67 65 63 61 58 58 56 53 49
56 59 62 65 68 71 74 78 81 83 90 90 94 97 101 104 105 105 107 107 112 114 117 121 124 127 128 123 123 124 127 126 120 71 64 62 61 59 58 56 54 49 45
61 63 66 68 72 76 79 83 86 88 92 97 100 102 103 103 105 108 111 113 115 118 120 124 127 123 123 121 124 128 127 82 77 68 65 62 60 58 56 54 51 45 45
63 66 70 73 77 80 84 86 90 93 95 98 98 100 103 106 110 113 116 117 118 117 121 120 119 119 121 123 123 111 79 75 73 68 64 60 59 56 53 51 47 43 44
68 71 74 77 80 83 87 88 90 91 93 95 98 101 105 108 110 112 114 117 119 118 114 112 115 119 121 125 91 77 72 71 69 65 63 60 57 54 51 47 44 43 43
72 75 77 79 81 83 85 85 89 92 95 99 101 102 102 110 111 112 115 116 115 116 116 115 116 122 125 83 76 71 69 67 65 63 60 58 55 52 48 45 43 43 43
73 75 78 80 80 83 85 89 91 94 98 100 102 105 106 109 111 111 105 108 110 111 114 115 125 118 76 74 72 70 69 64 65 60 58 53 52 49 46 44 42 40 39
72 73 77 80 83 84 87 88 95 97 100 102 104 106 105 102 103 105 106 107 109 110 112 123 100 77 74 73 69 68 68 65 62 57 55 49 50 47 44 42 40 38 36
75 78 81 82 84 88 92 94 99 100 101 104 103 100 102 103 106 107 108 111 115 119 124 91 79 75 69 66 65 46 49 56 54 52 52 45 46 45 43 39 38 37 35
74 78 82 84 88 93 96 98 101 100 103 102 103 103 104 107 108 110 113 112 124 125 86 79 71 66 64 63 47 42 42 43 47 48 47 42 42 42 39 37 37 35 33
81 84 86 90 91 94 98 98 100 101 102 103 104 107 111 114 116 116 119 123 123 83 80 73 66 60 60 60 52 42 40 39 40 42 41 38 37 40 36 36 35 34 31
85 88 91 91 94 99 99 101 102 104 104 107 110 114 115 114 115 126 125 124 84 80 75 69 65 60 58 52 50 46 43 34 32 33 34 34 37 36 37 35 34 32 28
88 91 93 97 101 101 102 105 105 108 111 111 114 115 117 125 128 125 123 82 80 75 71 68 66 63 56 47 45 45 42 36 30 30 31 32 33 35 34 34 31 29 27
94 96 98 102 102 104 106 107 110 115 116 119 115 121 130 127 127 121 81 79 76 71 69 65 56 55 51 43 42 42 39 35 33 30 30 30 31 31 32 32 28 27 26
104 105 106 106 104 110 111 114 119 118 116 116 129 133 129 128 120 90 79 80 74 70 66 61 43 40 40 40 40 39 38 33 34 32 30 29 29 29 30 26 27 26 25
108 106 107 101 112 114 120 121 117 117 126 131 133 134 128 117 95 79 82 88 73 69 63 59 40 37 36 38 38 37 37 36 34 31 29 28 29 28 28 27 27 26 25
110 112 114 113 118 122 122 119 125 131 132 134 134 128 120 83 81 84 86 77 72 63 58 56 39 36 35 36 36 37 37 37 35 32 29 28 30 27 25 27 28 26 26
117 115 116 119 123 124 124 129 133 135 135 132 128 114 83 83 86 86 80 76 59 54 52 48 39 39 40 33 32 32 32 32 33 32 29 30 32 28 25 25 23 27 28
114 120 123 128 127 130 133 135 137 135 130 124 91 85 84 84 84 82 81 60 54 49 46 41 40 40 38 32 30 32 32 31 31 32 30 31 35 32 30 28 27 25 30
Wind_Direction
274 272 272 272 270 275 280 286 290 293 296 297 299 298 300 303 302 303 302 302 302 304 306 305 306 306 306 307 308 307 310 312 313 314 314 314 315 315 316 312 311 311 311
277 265 280 275 272 277 285 289 292 296 296 297 298 301 301 301 301 301 301 303 303 303 304 305 305 306 308 309 311 311 312 314 314 314 314 315 317 317 313 311 311 311 312
284 278 273 276 280 279 286 290 293 295 297 297 297 298 298 297 295 297 300 302 306 306 306 306 306 308 309 309 311 312 314 314 313 314 315 317 317 317 311 310 310 310 313
281 273 276 282 290 291 291 293 294 295 294 295 295 296 294 297 298 301 302 304 305 306 305 304 306 308 308 310 311 313 314 313 313 314 316 317 317 309 310 310 310 310 313
273 273 278 289 288 289 292 292 292 292 293 295 294 296 297 299 300 301 303 304 303 303 303 304 308 308 309 310 312 313 313 312 313 315 317 316 308 308 309 309 310 311 312
280 276 282 284 286 288 290 292 293 296 294 296 297 298 300 301 301 302 303 303 303 303 304 307 307 309 309 310 312 312 311 312 314 315 316 307 307 307 308 309 309 311 312
275 278 285 288 291 293 294 294 293 295 297 296 299 298 299 299 301 302 302 303 302 304 306 307 308 308 310 311 311 311 311 312 313 314 308 306 306 306 307 307 309 310 310
275 288 290 292 292 292 291 291 293 294 295 298 298 299 300 300 300 300 302 301 304 305 307 307 307 309 310 310 309 311 311 312 312 313 306 304 305 305 306 307 307 309 308
287 289 289 290 290 290 292 294 295 299 296 298 297 299 299 299 300 301 301 303 306 305 307 307 308 308 308 309 310 312 311 311 310 306 303 302 303 303 305 305 305 306 304
289 289 289 291 292 294 294 295 295 295 295 297 297 297 298 300 302 303 304 304 304 306 306 307 307 307 308 309 311 310 310 306 304 305 303 302 302 303 303 304 304 302 303
293 293 293 293 292 292 292 293 293 294 295 295 299 300 302 303 304 304 304 305 305 305 306 306 307 308 308 310 311 310 306 301 301 302 300 300 300 301 301 301 301 301 302
290 289 289 290 290 291 292 293 294 296 299 299 301 303 303 303 303 304 304 304 305 305 305 307 307 308 310 310 306 304 300 298 298 297 297 298 298 299 299 299 296 300 300
287 289 290 290 290 292 295 298 298 299 300 300 301 302 304 303 304 305 305 305 306 307 309 309 310 311 310 303 301 300 298 296 295 295 295 295 295 296 296 296 296 296 300
287 289 291 293 296 296 297 299 300 301 301 301 302 303 304 304 304 304 305 306 307 307 309 311 311 310 303 302 300 299 297 293 294 293 291 292 292 292 293 294 293 293 292
290 297 294 297 297 298 300 303 300 300 302 304 304 303 304 306 306 307 306 307 307 308 310 309 310 305 304 302 298 298 296 292 291 287 287 288 289 289 290 292 290 292 290
295 297 298 298 298 301 301 300 302 304 304 303 304 309 310 309 310 309 308 310 311 312 311 311 309 306 304 302 301 284 281 283 282 282 284 285 282 285 287 285 286 289 289
298 298 302 303 299 300 301 303 306 304 303 306 307 312 309 310 310 311 311 313 312 312 312 310 308 307 306 306 298 293 286 281 279 280 279 279 278 281 281 283 283 287 286
295 303 302 301 301 301 305 305 303 305 305 308 310 311 312 312 312 313 313 312 314 312 312 310 309 306 306 307 304 296 290 282 276 273 273 273 275 279 278 279 280 281 281
305 300 302 304 303 306 304 306 306 309 310 312 313 314 313 313 314 313 314 315 314 313 312 310 309 308 307 304 302 301 300 288 276 270 268 269 274 273 277 275 277 275 273
300 300 305 307 306 305 308 309 311 313 314 314 315 314 314 314 314 315 316 314 315 313 312 310 308 308 304 298 298 297 296 290 281 271 269 271 269 271 272 272 268 266 264
305 306 306 305 307 309 309 310 313 314 314 314 314 314 314 315 315 315 316 316 316 314 313 311 305 302 301 293 293 292 292 290 283 276 272 268 266 267 270 272 258 257 257
307 306 309 310 311 309 310 312 313 313 313 313 313 314 315 315 315 315 316 316 316 314 313 313 304 295 289 287 287 287 288 286 287 273 269 269 263 265 270 254 249 249 252
311 310 310 311 308 309 312 312 312 312 312 312 313 315 314 314 315 315 315 316 315 314 313 313 307 300 290 285 282 280 282 283 282 275 264 257 262 266 267 249 242 244 248
309 308 308 307 309 311 311 311 311 311 310 313 313 313 313 314 314 314 314 314 314 312 312 312 308 303 298 292 284 280 279 278 266 268 256 251 255 262 258 243 242 246 247
307 306 306 308 309 309 310 310 309 311 311 311 311 312 313 314 313 314 314 315 313 310 309 309 304 302 301 291 280 272 261 254 253 255 258 243 247 249 246 250 252 245 244
305 306 307 308 308 309 308 308 310 310 309 309 312 312 312 312 313 314 314 314 311 308 306 307 301 300 301 294 283 238 249 249 246 246 249 238 240 241 238 244 248 249 239